This is the latest recevied weather packets stored in our database for station/object FW0727. If no packets are shown the sender has not sent any weather packets the latest 10 day(s).
| Time | Temp. | Humidity | Pressure | Rain* | Wind** | Luminosity | Snow |
|---|---|---|---|---|---|---|---|
| 1777184833 | 18.33° C | 35% | 1008.8 hPa | - | - | - | - |
| 1777184488 | 17.78° C | 36% | 1008.9 hPa | - | - | - | - |
| 1777184136 | 17.78° C | 36% | 1009 hPa | - | - | - | - |
| 1777183783 | 17.78° C | 37% | 1009.2 hPa | - | - | - | - |
| 1777183425 | 17.22° C | 37% | 1009.1 hPa | - | - | - | - |
| 1777183073 | 16.67° C | 37% | 1009.2 hPa | - | - | - | - |
| 1777182720 | 16.67° C | 38% | 1009.1 hPa | - | - | - | - |
| 1777182368 | 15.56° C | 38% | 1009.2 hPa | - | - | - | - |
| 1777182015 | 15.56° C | 38% | 1009.2 hPa | - | - | - | - |
| 1777181662 | 15° C | 39% | 1009.3 hPa | - | - | - | - |
| 1777180956 | 13.89° C | 40% | 1009.2 hPa | - | - | - | - |
| 1777180603 | 13.33° C | 41% | 1009.2 hPa | - | - | - | - |
| 1777180250 | 13.33° C | 42% | 1009.3 hPa | - | - | - | - |
| 1777179897 | 12.78° C | 43% | 1009.2 hPa | - | - | - | - |
| 1777179546 | 12.22° C | 42% | 1009.3 hPa | - | - | - | - |
| 1777179194 | 12.22° C | 43% | 1009.3 hPa | - | - | - | - |
| 1777178842 | 11.67° C | 44% | 1009.4 hPa | - | - | - | - |
| 1777178489 | 11.11° C | 44% | 1009.3 hPa | - | - | - | - |
| 1777178137 | 10.56° C | 45% | 1009.3 hPa | - | - | - | - |
| 1777177784 | 10° C | 46% | 1009.3 hPa | - | - | - | - |
| 1777177431 | 9.44° C | 46% | 1009.3 hPa | - | - | - | - |
| 1777177078 | 9.44° C | 46% | 1009.3 hPa | - | - | - | - |
| 1777176396 | 8.89° C | 47% | 1009.4 hPa | - | - | - | - |
| 1777175715 | 8.33° C | 48% | 1009.3 hPa | - | - | - | - |
| 1777174376 | 7.78° C | 49% | 1009.3 hPa | - | - | - | - |
* Rain since midnight (hover to see other rain measurements)
** Current wind speed in m/s (hover to see current wind gust speed)